Weather History for Erie, CO

Change the Weather History Date:

Friday, July 20, 2012

  Actual Average (KBJC) Record (KBJC)
Temperature  
Mean Temperature 76 °F -  
Max Temperature 98 °F 86 °F 100 °F (2008)
Min Temperature 55 °F 62 °F 49 °F (1986)
Cooling Degree Days 12    
Growing Degree Days 26 (Base 50)    
Moisture  
Dew Point 42 °F    
Average Humidity 34    
Maximum Humidity 82    
Minimum Humidity 10    
Precipitation  
Precipitation 0.00 in - - ()
Sea Level Pressure  
Sea Level Pressure 30.18 in    
Wind  
Wind Speed 3 mph (SSE)    
Max Wind Speed 14 mph    
Max Gust Speed 23 mph    
Visibility 10 miles    
Events      
Averages and records for this station are not official NWS values.
T = Trace of Precipitation, MM = Missing Value Source: NWS Daily Summary

Daily Weather History Graph

Daily Weather History Graph

Search for Another Location

Airport:

Trip Planner

Search our weather history database for the weather conditions in past years. The results will help you decide how hot, cold, wet, or windy it might be!

Date:

Astronomy

Jul. 20, 2012 Rise Set
Actual Time 5:48 AM MDT 8:24 PM MDT
Civil Twilight 5:17 AM MDT 8:55 PM MDT
Nautical Twilight 4:37 AM MDT 9:34 PM MDT
Astronomical Twilight 3:53 AM MDT 10:18 PM MDT
Moon 7:28 AM MDT (7/20) 9:05 PM MDT (7/20)
Length of Visible Light 15h 38m
Length of Day
14h 35m
Waxing Crescent, 3% of the Moon is Illuminated
Jul 20
Waxing Crescent
Jul 26
First Quarter
Aug 1
Full
Aug 9
Last Quarter
Aug 17
New

Hourly Weather History & Observations

Time (MDT) Temp. Dew Point Humidity Pressure Visibility Wind Dir Wind Speed Gust Speed Precip Events Conditions
12:13 AM 68.0 °F 50.0 °F 52% 30.20 in 10.0 mi Calm Calm - N/A   Clear
12:33 AM 64.4 °F 50.0 °F 59% 30.20 in 10.0 mi Calm Calm - N/A   Clear
12:53 AM 64.4 °F 50.0 °F 59% 30.20 in 10.0 mi Calm Calm - N/A   Clear
1:33 AM 64.4 °F 50.0 °F 59% 30.20 in 10.0 mi Calm Calm - N/A   Clear
1:53 AM 64.4 °F 50.0 °F 59% 30.20 in 10.0 mi South 3.5 mph - N/A   Clear
2:13 AM 62.6 °F 50.0 °F 63% 30.19 in 10.0 mi SSW 3.5 mph - N/A   Clear
2:33 AM 62.6 °F 48.2 °F 59% 30.20 in 10.0 mi Calm Calm - N/A   Clear
2:53 AM 62.6 °F 50.0 °F 63% 30.19 in 10.0 mi Calm Calm - N/A   Clear
3:13 AM 60.8 °F 50.0 °F 68% 30.19 in 10.0 mi Calm Calm - N/A   Clear
3:33 AM 60.8 °F 50.0 °F 68% 30.19 in 10.0 mi Calm Calm - N/A   Clear
3:53 AM 60.8 °F 50.0 °F 68% 30.19 in 10.0 mi Calm Calm - N/A   Clear
4:13 AM 59.0 °F 50.0 °F 72% 30.19 in 10.0 mi Calm Calm - N/A   Clear
4:33 AM 60.8 °F 50.0 °F 68% 30.20 in 10.0 mi Calm Calm - N/A   Clear
4:53 AM 59.0 °F 50.0 °F 72% 30.20 in 10.0 mi Calm Calm - N/A   Clear
5:13 AM 59.0 °F 50.0 °F 72% 30.20 in 10.0 mi SSW 3.5 mph - N/A   Clear
5:33 AM 55.4 °F 50.0 °F 82% 30.20 in 10.0 mi Calm Calm - N/A   Clear
5:53 AM 60.8 °F 48.2 °F 63% 30.21 in 10.0 mi Calm Calm - N/A   Clear
6:13 AM 60.8 °F 48.2 °F 63% 30.22 in 10.0 mi Calm Calm - N/A   Clear
6:33 AM 59.0 °F 50.0 °F 72% 30.22 in 10.0 mi Calm Calm - N/A   Clear
6:53 AM 62.6 °F 50.0 °F 63% 30.22 in 10.0 mi Calm Calm - N/A   Clear
7:13 AM 64.4 °F 50.0 °F 59% 30.23 in 10.0 mi SW 3.5 mph - N/A   Clear
7:33 AM 68.0 °F 51.8 °F 56% 30.23 in 10.0 mi Calm Calm - N/A   Clear
7:53 AM 71.6 °F 50.0 °F 46% 30.23 in 10.0 mi Calm Calm - N/A   Clear
8:13 AM 75.2 °F 46.4 °F 36% 30.23 in 10.0 mi Calm Calm - N/A   Clear
8:33 AM 77.0 °F 44.6 °F 32% 30.23 in 10.0 mi Calm Calm - N/A   Clear
8:53 AM 77.0 °F 44.6 °F 32% 30.23 in 10.0 mi Calm Calm - N/A   Clear
9:13 AM 80.6 °F 42.8 °F 26% 30.23 in 10.0 mi Calm Calm - N/A   Clear
9:33 AM 82.4 °F 44.6 °F 26% 30.23 in 10.0 mi ESE 4.6 mph - N/A   Clear
9:53 AM 82.4 °F 44.6 °F 26% 30.23 in 10.0 mi NE 3.5 mph - N/A   Clear
10:13 AM 86.0 °F 44.6 °F 23% 30.23 in 10.0 mi East 3.5 mph - N/A   Clear
10:33 AM 86.0 °F 44.6 °F 23% 30.23 in 10.0 mi East 5.8 mph - N/A   Clear
10:53 AM 86.0 °F 44.6 °F 23% 30.23 in 10.0 mi ENE 3.5 mph - N/A   Clear
11:13 AM 87.8 °F 44.6 °F 22% 30.23 in 10.0 mi Calm Calm - N/A   Clear
11:33 AM 89.6 °F 44.6 °F 21% 30.22 in 10.0 mi East 3.5 mph - N/A   Clear
12:13 PM 93.2 °F 42.8 °F 17% 30.21 in 10.0 mi Calm Calm - N/A   Clear
12:33 PM 96.8 °F 37.4 °F 13% 30.20 in 10.0 mi South 8.1 mph 16.1 mph N/A   Clear
12:53 PM 96.8 °F 33.8 °F 11% 30.19 in 10.0 mi SSE 5.8 mph 9.2 mph N/A   Clear
1:13 PM 96.8 °F 33.8 °F 11% 30.19 in 10.0 mi SE 9.2 mph - N/A   Clear
1:33 PM 96.8 °F 33.8 °F 11% 30.18 in 10.0 mi SE 10.4 mph 16.1 mph N/A   Clear
1:53 PM 98.6 °F 33.8 °F 10% 30.17 in 10.0 mi SSW 3.5 mph - N/A   Clear
2:13 PM 98.6 °F 33.8 °F 10% 30.16 in 10.0 mi SE 13.8 mph 23.0 mph N/A   Clear
2:33 PM 98.6 °F 32.0 °F 10% 30.16 in 10.0 mi South 6.9 mph - N/A   Clear
2:53 PM 98.6 °F 32.0 °F 10% 30.15 in 10.0 mi SSE 9.2 mph - N/A   Clear
3:13 PM 98.6 °F 32.0 °F 10% 30.15 in 10.0 mi SSE 10.4 mph - N/A   Clear
3:33 PM 98.6 °F 32.0 °F 10% 30.14 in 10.0 mi East 5.8 mph - N/A   Clear
3:53 PM 98.6 °F 33.8 °F 10% 30.13 in 10.0 mi South 10.4 mph 16.1 mph N/A   Clear
4:13 PM 98.6 °F 32.0 °F 10% 30.13 in 10.0 mi SSE 6.9 mph - N/A   Clear
4:33 PM 98.6 °F 32.0 °F 10% 30.12 in 10.0 mi South 10.4 mph - N/A   Clear
4:53 PM 98.6 °F 32.0 °F 10% 30.12 in 10.0 mi SE 8.1 mph - N/A   Clear
5:13 PM 98.6 °F 32.0 °F 10% 30.11 in 10.0 mi South 6.9 mph - N/A   Clear
5:33 PM 96.8 °F 33.8 °F 11% 30.11 in 10.0 mi South 9.2 mph - N/A   Clear
5:53 PM 96.8 °F 33.8 °F 11% 30.11 in 10.0 mi SSE 9.2 mph 19.6 mph N/A   Clear
6:13 PM 96.8 °F 33.8 °F 11% 30.12 in 10.0 mi SE 12.7 mph 16.1 mph N/A   Clear
6:33 PM 95.0 °F 35.6 °F 12% 30.12 in 10.0 mi SSE 10.4 mph - N/A   Clear
7:13 PM 93.2 °F 33.8 °F 12% 30.12 in 10.0 mi SSE 9.2 mph 16.1 mph N/A   Clear
7:33 PM 91.4 °F 33.8 °F 13% 30.13 in 10.0 mi SSE 8.1 mph - N/A   Clear
7:53 PM 89.6 °F 35.6 °F 15% 30.13 in 10.0 mi SSE 5.8 mph - N/A   Clear
8:13 PM 86.0 °F 39.2 °F 19% 30.13 in 10.0 mi SSE 5.8 mph - N/A   Clear
8:33 PM 84.2 °F 37.4 °F 19% 30.13 in 10.0 mi SSE 4.6 mph - N/A   Clear
8:53 PM 82.4 °F 37.4 °F 20% 30.14 in 10.0 mi SSE 3.5 mph - N/A   Clear
9:13 PM 80.6 °F 41.0 °F 24% 30.16 in 10.0 mi SSW 3.5 mph - N/A   Clear
9:33 PM 78.8 °F 41.0 °F 26% 30.16 in 10.0 mi Calm Calm - N/A   Clear
9:53 PM 77.0 °F 41.0 °F 28% 30.17 in 10.0 mi SSW 3.5 mph - N/A   Clear
10:13 PM 75.2 °F 41.0 °F 29% 30.18 in 10.0 mi SSW 5.8 mph - N/A   Clear
10:33 PM 77.0 °F 39.2 °F 26% 30.18 in 10.0 mi South 4.6 mph - N/A   Clear
10:53 PM 77.0 °F 41.0 °F 28% 30.18 in 10.0 mi Calm Calm - N/A   Clear
11:13 PM 75.2 °F 41.0 °F 29% 30.18 in 10.0 mi South 4.6 mph - N/A   Clear
11:33 PM 73.4 °F 42.8 °F 33% 30.18 in 10.0 mi SSE 3.5 mph - N/A   Clear
11:53 PM 69.8 °F 44.6 °F 40% 30.19 in 10.0 mi Calm Calm - N/A   Clear